{"data":{"norad_id":61939,"epoch":"2026-05-24T23:34:56.974368Z","epoch_age_seconds":73670,"freshness":"FRESH","line1":"1 61939U 24209A   26144.98260387  .00213625  00000+0  17188-2 0  9990","line2":"2 61939  53.1580 354.9432 0000812  63.7787 296.3314 15.69770202 88723","mean_motion":15.69770202,"eccentricity":8.12e-5,"inclination_deg":53.158,"raan_deg":354.9432,"arg_perigee_deg":63.7787,"mean_anomaly_deg":296.3314,"bstar":0.0017188,"rev_number":8872,"period_min":91.733172037878,"perigee_km":359.0073802974,"apogee_km":360.10158139389,"semimajor_km":6737.6914808456,"source":"CELESTRAK","updated_at":"2026-05-25T13:38:19.485699Z"}}